{"data":{"norad_id":56478,"epoch":"2026-09-20T22:00:03.000096Z","epoch_age_seconds":75969,"freshness":"FRESH","line1":"1 56478U 23064AG  26263.91670139  .00004659  00000+0  32217-3 0  9991","line2":"2 56478  70.0000 352.0896 0003924 305.8115 129.4006 15.06396357  5768","mean_motion":15.06396357,"eccentricity":0.0003924,"inclination_deg":70,"raan_deg":352.0896,"arg_perigee_deg":305.8115,"mean_anomaly_deg":129.4006,"bstar":0.00032217,"rev_number":576,"period_min":95.592371377462,"perigee_km":544.50521207569,"apogee_km":549.94023438648,"semimajor_km":6925.3597232311,"source":"CELESTRAK","updated_at":"2026-09-21T09:00:33.447110Z"}}